[[{"header":{"parameterUnit":"m.s-1","parameterCategory":1,"la1":30.2991,"la2":30.254,"lo1":-89.0895,"lo2":-89.0444,"dy":0.0017,"dx":0.0017,"nx":28,"ny":28,"refTime":"2023-08-06T21:00:00:Z","depth":0,"parameterNumber":2,"parameterNumberName":"U-component_of_WINDS"},"data":[0,0,0,0,0,0,0,0,0,0,0,0,0,0,0,0,0,0,0,0,0,0,0,0,0,0,0,0,0,0,0,0,0,0,0,0,0,0,0,0,0,0,0,0,0,0,0,0,0,0,0,0,0,0,0,0,0,0,4.654,4.6541,0,4.6647,4.6648,4.665,4.6614,4.6612,4.6609,4.6607,4.6721,4.6726,4.6731,0,0,0,0,0,0,0,0,0,0,0,0,0,4.6308,4.6312,4.654,4.6541,4.6542,4.6647,4.6648,4.665,4.6614,4.6611,4.6609,4.6606,4.6719,4.6725,4.6731,0,0,0,0,0,0,0,0,0,0,0,0,0,4.6411,4.6314,4.6539,4.6537,4.6538,4.6647,4.6648,4.665,4.6615,4.6611,4.6608,4.6605,4.6717,4.6724,4.6732,4.6851,0,0,4.6756,4.6759,0,0,0,0,0,0,0,0,4.6405,4.642,4.6536,4.6537,4.6539,4.6613,4.6608,4.6718,4.6616,4.6586,4.6607,4.6603,4.6688,4.6698,4.6726,4.6856,4.6861,4.6757,4.6761,4.6765,4.6767,0,0,0,0,0,0,0,4.6398,4.6415,4.6582,4.6538,4.6539,4.6532,4.6543,4.6629,4.6655,4.6588,4.6586,4.6599,4.6688,4.6719,4.6728,4.6862,4.6756,4.6763,4.6768,4.6771,4.7097,4.7101,0,0,0,0,0,0,4.639,4.6409,4.6579,4.6585,4.6462,4.6539,4.6551,4.6593,4.6654,4.666,4.6602,4.6597,4.6707,4.6719,4.6732,4.6876,4.6765,4.6772,4.6777,4.7093,4.7098,4.7102,0,0,0,0,0,0,4.6385,4.6405,4.6574,4.6497,4.6518,4.6547,4.6594,4.6597,4.6627,4.6665,4.667,4.6628,4.6705,4.6721,4.6822,4.6879,4.6776,4.6783,4.7088,4.7095,4.71,4.7163,0,0,0,0,0,0,4.6379,4.6404,4.6448,4.6498,4.6522,4.6661,4.6598,4.6602,4.664,4.6635,4.669,4.6696,4.6703,4.681,4.6829,4.6888,4.6789,4.7083,4.7091,4.7098,4.7156,4.7171,4.7183,0,0,0,0,0,4.637,4.6462,4.645,4.6471,4.6578,4.6664,4.6678,4.6683,4.6645,4.6691,4.6715,4.6694,4.687,4.6821,4.6842,4.6904,4.708,4.7089,4.7098,4.715,4.7168,4.7183,0,0,0,0,0,0,4.6419,4.6468,4.6456,4.6566,4.6611,4.6658,4.6715,4.6702,4.6759,4.6752,4.6757,4.677,4.6873,4.6899,4.6843,4.7023,4.6969,4.6983,4.7002,4.7019,4.7032,4.7024,4.6795,0,0,0,0,0,4.6442,4.6507,4.6547,4.6641,4.6664,4.6686,4.6724,4.6724,4.6771,4.679,4.6822,4.6869,4.6935,4.6979,4.7041,4.716,4.7172,4.7213,4.7227,4.7238,4.7249,4.7315,4.7334,4.7131,4.7131,4.7131,0,0,4.6491,4.6526,4.6567,4.6651,4.6686,4.6755,4.6702,4.6776,4.6828,4.6802,4.6898,4.6924,4.6977,4.7087,4.7138,4.7112,4.7308,4.7249,4.7257,4.7263,4.7326,4.7345,4.7363,4.7137,4.7136,4.7135,0,0,4.6615,4.6648,4.673,4.6766,4.6819,4.6834,4.6853,4.6903,4.6918,4.7015,4.6997,4.7059,4.7173,4.7212,4.7247,4.7388,4.7372,4.7408,4.7479,4.7543,4.7559,4.7573,4.7624,4.7642,4.742,4.742,4.742,0,4.667,4.6771,4.6774,4.685,4.6889,4.6868,4.6952,4.6987,4.7059,4.7086,4.7056,4.7199,4.7234,4.7353,4.7388,4.7416,4.744,4.7402,4.7556,4.757,4.7584,4.7632,4.7651,4.7424,4.7424,4.7423,4.7423,0,4.6836,4.6906,4.6966,4.7035,4.7081,4.716,4.7177,4.7223,4.722,4.7238,4.7338,4.7379,4.745,4.7478,4.7476,4.7599,4.7581,4.7554,4.75,4.7607,4.7653,4.7672,4.743,4.7429,4.7428,4.7427,0,0,4.6992,4.7063,4.7085,4.7116,4.7174,4.723,4.7309,4.7378,4.7418,4.7468,4.7536,4.7633,4.7609,4.7648,4.7651,4.7707,4.7818,4.7673,4.7674,4.7699,4.7956,4.7976,4.7997,4.7807,4.7811,4.7814,4.7951,0,4.7122,4.726,4.7266,4.7393,4.7459,4.7441,4.7511,4.7555,4.7575,4.7635,4.7657,4.7726,4.7688,4.7712,4.7767,4.7792,4.7869,4.7783,4.7872,4.7875,4.7858,4.8021,4.8043,4.817,4.7969,4.7972,4.7975,0,4.729,4.7346,4.7479,4.7529,4.7557,4.7619,4.7683,4.7741,4.7791,4.7801,4.7846,4.7841,4.7925,4.7869,4.7984,4.7925,4.7962,4.7981,4.7986,4.7994,4.7931,4.8034,4.8211,4.823,4.8003,4.8001,4.7999,0,4.7392,4.75,4.7594,4.7621,4.7682,4.7726,4.7753,4.78,4.7842,4.7899,4.7926,4.7992,4.8028,4.8081,4.8094,4.8052,4.821,4.8155,4.8222,4.8222,4.8256,4.8253,4.8441,4.828,4.828,4.8279,4.8279,0,4.7536,4.7618,4.764,4.7698,4.779,4.7798,4.7889,4.7914,4.7956,4.8019,4.8009,4.8069,4.8083,4.8146,4.8158,4.8252,4.8269,4.8281,4.8283,4.8282,4.828,4.8306,4.8297,4.8284,4.8283,4.8282,4.8281,0,4.7664,4.7682,4.7783,4.7832,4.7847,4.7913,4.7955,4.8012,4.803,4.8111,4.813,4.816,4.8234,4.8253,4.8341,4.8349,4.8461,4.8455,4.8444,4.8443,4.8509,4.8503,4.872,4.8749,4.8569,4.8571,4.8572,0,4.7754,4.7817,4.7873,4.7914,4.7944,4.801,4.8052,4.8063,4.8107,4.817,4.822,4.8292,4.8351,4.8471,4.8501,4.8569,4.8564,4.8636,4.8575,4.8572,4.8566,4.8562,4.8569,4.8647,4.8649,4.8651,4.8652,0,4.7913,4.7919,4.798,4.8045,4.8095,4.8146,4.8196,4.8231,4.8248,4.8299,4.8374,4.842,4.851,4.8583,4.8652,4.8682,4.8671,4.8671,4.8691,4.869,4.8681,4.8687,4.8475,4.8666,4.8665,4.8664,4.8663,4.8662,4.8026,4.8081,4.8129,4.8198,4.8236,4.8282,4.8338,4.8363,4.8426,4.85,4.8502,4.8585,4.8635,4.8727,4.876,4.8826,4.8804,4.8832,4.8839,4.8846,4.8852,4.8671,4.8839,4.8838,4.8838,4.8838,4.8837,0,4.8184,4.8214,4.8277,4.8346,4.8401,4.8385,4.8439,4.8485,4.8557,4.8605,4.8663,4.875,4.8821,4.8857,4.8928,4.8974,4.8971,4.8992,4.8989,4.8996,4.8867,4.8843,4.8993,4.8993,4.8993,4.8993,4.8993,4.8993,4.8273,4.8366,4.8378,4.8491,4.8521,4.86,4.8633,4.8676,4.8714,4.8812,4.887,4.8893,4.8937,4.9011,4.9076,4.9085,4.9112,4.9136,4.9142,4.9021,4.9005,4.899,4.8967,4.9142,4.9142,4.9266,4.9267,4.9268]},{"header":{"parameterUnit":"m.s-1","parameterCategory":1,"la1":30.2991,"la2":30.254,"lo1":-89.0895,"lo2":-89.0444,"dy":0.0017,"dx":0.0017,"nx":28,"ny":28,"refTime":"2023-08-06T21:00:00:Z","depth":0,"parameterNumber":3,"parameterNumberName":"V-component_of_WINDS"},"data":[0,0,0,0,0,0,0,0,0,0,0,0,0,0,0,0,0,0,0,0,0,0,0,0,0,0,0,0,0,0,0,0,0,0,0,0,0,0,0,0,0,0,0,0,0,0,0,0,0,0,0,0,0,0,0,0,0,0,0.7282,0.7282,0,0.7315,0.7315,0.7316,0.7317,0.7316,0.7316,0.7315,0.7349,0.735,0.7351,0,0,0,0,0,0,0,0,0,0,0,0,0,0.7218,0.7219,0.7282,0.7282,0.7283,0.7315,0.7315,0.7316,0.7317,0.7316,0.7316,0.7315,0.7349,0.735,0.7352,0,0,0,0,0,0,0,0,0,0,0,0,0,0.7248,0.7219,0.7282,0.7287,0.7288,0.7315,0.7315,0.7316,0.7317,0.7316,0.7315,0.7315,0.7348,0.735,0.7352,0.7376,0,0,0.7358,0.7358,0,0,0,0,0,0,0,0,0.7246,0.725,0.7286,0.7287,0.7287,0.7311,0.7305,0.7336,0.7317,0.7306,0.7315,0.7315,0.7337,0.734,0.7347,0.7378,0.7379,0.7358,0.7359,0.736,0.736,0,0,0,0,0,0,0,0.7244,0.7249,0.7295,0.7286,0.7287,0.7287,0.7291,0.7311,0.7324,0.7307,0.7307,0.7311,0.7337,0.7345,0.7348,0.7379,0.7358,0.7359,0.7361,0.7361,0.743,0.743,0,0,0,0,0,0,0.7241,0.7247,0.7294,0.7296,0.7265,0.7289,0.7293,0.7304,0.7324,0.7327,0.7311,0.7311,0.7342,0.7346,0.7349,0.7378,0.736,0.7362,0.7363,0.7429,0.743,0.7431,0,0,0,0,0,0,0.724,0.7245,0.7292,0.7271,0.7277,0.7291,0.7303,0.7305,0.7313,0.7328,0.733,0.7317,0.7342,0.7346,0.7369,0.7379,0.7362,0.7364,0.7428,0.7429,0.743,0.7436,0,0,0,0,0,0,0.7238,0.7245,0.7254,0.7272,0.7279,0.7312,0.7304,0.7306,0.7317,0.7316,0.7334,0.7336,0.7342,0.7366,0.7371,0.7381,0.7366,0.7428,0.7429,0.743,0.7435,0.7437,0.7439,0,0,0,0,0,0.7235,0.7255,0.7255,0.726,0.7291,0.7313,0.7317,0.7323,0.7317,0.7327,0.7336,0.7335,0.7377,0.7368,0.7374,0.7385,0.7427,0.7429,0.743,0.7434,0.7437,0.7439,0,0,0,0,0,0,0.7238,0.7257,0.7257,0.7283,0.7296,0.7313,0.7325,0.7326,0.7341,0.734,0.7347,0.7351,0.7373,0.7381,0.7371,0.7409,0.7401,0.7404,0.7403,0.7405,0.7407,0.7405,0.7367,0,0,0,0,0,0.7242,0.7258,0.7274,0.7295,0.7301,0.7312,0.7322,0.7326,0.734,0.7345,0.7356,0.7369,0.7385,0.7396,0.7411,0.7436,0.744,0.7446,0.7448,0.745,0.7452,0.7465,0.7468,0.7436,0.7436,0.7436,0,0,0.725,0.7262,0.7272,0.7296,0.7306,0.7323,0.7317,0.7335,0.7347,0.7348,0.737,0.7378,0.7393,0.7417,0.7428,0.7424,0.7462,0.7452,0.7453,0.7454,0.7467,0.747,0.7472,0.7437,0.7437,0.7436,0,0,0.7272,0.7283,0.7301,0.7312,0.7328,0.7335,0.7339,0.7356,0.7361,0.7383,0.7384,0.7398,0.7426,0.7437,0.7446,0.7471,0.747,0.7475,0.7486,0.7498,0.75,0.7503,0.7511,0.7514,0.7478,0.7478,0.7478,0,0.7279,0.7304,0.7311,0.7328,0.7338,0.734,0.7358,0.7368,0.7389,0.7395,0.7391,0.7425,0.7436,0.7461,0.7467,0.7475,0.7479,0.7473,0.75,0.7502,0.7504,0.7512,0.7515,0.7478,0.7478,0.7478,0.7478,0,0.7312,0.7329,0.7342,0.7362,0.7373,0.7391,0.74,0.741,0.7413,0.742,0.7441,0.7454,0.7472,0.7478,0.7481,0.7504,0.7501,0.7498,0.7491,0.7508,0.7515,0.7518,0.7479,0.7478,0.7478,0.7478,0,0,0.7338,0.736,0.7364,0.7373,0.739,0.7404,0.7421,0.7438,0.7447,0.7461,0.7475,0.7498,0.7495,0.7505,0.7509,0.752,0.7538,0.7516,0.7516,0.7519,0.7563,0.7564,0.7568,0.7538,0.7538,0.7539,0.7561,0,0.7361,0.7393,0.7399,0.7426,0.7441,0.7442,0.7457,0.7469,0.7476,0.749,0.7497,0.7513,0.7508,0.7514,0.7525,0.7533,0.7547,0.7532,0.7551,0.7551,0.7547,0.7572,0.7574,0.7595,0.7564,0.7565,0.7565,0,0.7394,0.7408,0.7436,0.7451,0.7457,0.7471,0.7487,0.75,0.7513,0.7517,0.7528,0.753,0.7548,0.7539,0.7563,0.7553,0.7561,0.7566,0.7567,0.7569,0.7559,0.7574,0.7601,0.7604,0.757,0.757,0.7569,0,0.7408,0.7435,0.7455,0.7462,0.748,0.7489,0.7497,0.7509,0.7519,0.7533,0.7539,0.7554,0.7563,0.7574,0.758,0.7574,0.7603,0.7596,0.7607,0.7606,0.7613,0.7612,0.7641,0.7618,0.7618,0.7618,0.7618,0,0.7434,0.7451,0.7462,0.7474,0.7493,0.7499,0.7518,0.7525,0.7536,0.755,0.7552,0.7564,0.7572,0.7585,0.759,0.7608,0.7612,0.7615,0.7616,0.7615,0.7615,0.762,0.7619,0.7619,0.7619,0.7619,0.7619,0,0.7454,0.7462,0.7484,0.7498,0.7502,0.7516,0.7528,0.754,0.7546,0.7563,0.7567,0.7577,0.7593,0.76,0.762,0.7623,0.7643,0.7644,0.7639,0.7639,0.7649,0.7648,0.7683,0.7688,0.7662,0.7662,0.7662,0,0.747,0.7483,0.7499,0.7508,0.7516,0.753,0.754,0.7546,0.7556,0.7572,0.7581,0.7597,0.761,0.7635,0.7644,0.7658,0.7659,0.767,0.7661,0.7659,0.7658,0.7657,0.7658,0.7671,0.7672,0.7672,0.7672,0,0.7496,0.7499,0.7513,0.7528,0.754,0.7552,0.7564,0.7571,0.7579,0.759,0.7606,0.7616,0.7636,0.7651,0.7666,0.7673,0.7674,0.7675,0.7678,0.7676,0.7673,0.7674,0.7643,0.7674,0.7674,0.7674,0.7673,0.7673,0.7514,0.7526,0.7538,0.7554,0.7563,0.7574,0.7586,0.7593,0.7607,0.7623,0.7626,0.7643,0.7655,0.7675,0.7683,0.7695,0.7693,0.7698,0.7699,0.77,0.77,0.7671,0.7698,0.7698,0.7698,0.7698,0.7698,0,0.754,0.7548,0.7563,0.7579,0.7591,0.759,0.7603,0.7613,0.7628,0.7639,0.7651,0.7669,0.7684,0.7693,0.7708,0.7716,0.7717,0.772,0.7719,0.7721,0.7702,0.7697,0.7719,0.7719,0.7719,0.7719,0.7719,0.7719,0.7555,0.7575,0.7579,0.7602,0.761,0.7627,0.7634,0.7644,0.7653,0.7673,0.7685,0.7691,0.7701,0.7716,0.7729,0.7732,0.7737,0.774,0.7742,0.7724,0.7722,0.772,0.7716,0.7741,0.7741,0.776,0.776,0.776]}]]